Theta_e
330 334 337 337 339 336 336 334 331 331 332 330 330 332 332 333 337 341 332 329 326 327 322 319 325 328 327 326 325 322 324 325 325 323 321 321 323 324 321 318 318 319 320 319 319 319 320 321 322
331 336 337 337 340 341 338 334 333 334 332 330 332 332 332 334 333 333 332 330 329 328 328 329 328 327 326 326 322 323 324 325 323 321 318 316 316 318 321 322 323 319 318 319 319 319 319 319 319
332 336 338 339 336 339 338 335 334 334 331 332 333 334 333 332 331 332 332 330 330 330 331 326 329 329 328 327 323 324 324 322 318 315 311 310 311 312 314 317 319 321 321 322 322 322 321 321 320
335 336 336 341 336 335 337 336 335 334 334 332 334 335 331 332 331 332 330 330 331 331 331 330 330 330 328 325 324 324 322 315 310 307 306 306 306 307 309 312 314 316 317 318 320 321 323 323 323
335 337 339 337 337 336 335 335 335 336 334 333 333 335 331 331 331 331 330 331 331 331 331 327 328 328 327 324 323 321 316 309 305 305 306 307 307 306 306 306 307 309 311 311 311 312 312 314 316
336 335 339 339 338 337 335 335 335 335 335 334 333 333 332 331 331 330 330 330 330 330 330 326 322 322 320 321 318 315 309 304 305 306 308 308 308 307 307 306 306 306 306 306 307 307 307 307 307
336 335 336 337 337 336 335 334 335 335 335 334 333 334 334 330 331 330 330 329 329 329 329 327 324 315 319 317 314 310 306 306 307 308 308 308 309 309 309 308 308 308 308 308 307 307 306 306 306
333 335 337 336 337 337 335 334 335 335 335 333 333 333 334 331 331 330 328 328 326 324 323 324 323 320 317 314 312 308 306 308 309 308 310 312 309 309 309 308 307 306 307 306 306 306 307 307 306
332 336 338 337 337 337 335 336 335 335 335 334 333 330 332 332 331 328 328 325 321 318 319 320 320 320 319 314 310 307 307 309 310 311 315 317 316 313 308 307 305 305 305 305 305 308 311 312 313
333 335 337 335 335 335 336 335 336 335 335 335 333 331 332 331 329 328 328 324 318 317 316 316 317 317 315 313 315 314 316 317 316 316 316 315 314 310 307 306 304 306 307 307 308 310 312 313 314
334 335 335 335 334 333 334 334 335 335 335 334 335 333 333 330 328 328 328 324 316 315 314 315 315 314 313 315 315 315 316 316 316 315 314 313 313 312 311 310 310 310 310 311 311 312 312 311 313
332 334 334 334 333 332 332 333 335 335 336 335 335 334 333 330 328 328 329 324 316 314 315 315 315 315 315 315 315 316 316 315 315 311 308 311 312 311 310 310 310 310 311 311 311 311 311 311 311
333 334 334 334 333 333 332 333 334 334 335 334 335 335 333 330 328 329 329 324 317 315 315 315 315 315 315 315 315 316 315 316 315 312 310 311 311 311 311 311 311 311 311 311 311 311 311 311 310
334 333 334 333 333 332 334 333 333 333 335 334 336 335 334 331 329 329 329 324 318 316 316 316 315 315 316 315 316 316 316 315 314 311 311 312 312 312 312 312 312 312 311 311 311 311 311 310 310
333 333 334 333 333 334 333 334 333 334 334 335 336 335 334 332 329 329 329 325 320 318 316 316 316 315 316 316 317 316 316 315 314 311 310 310 312 312 312 312 311 311 311 311 311 311 311 311 311
333 333 333 334 332 331 334 334 333 334 334 335 335 335 335 333 330 329 329 327 322 319 317 316 315 315 316 316 316 316 316 315 314 312 310 309 310 311 311 311 311 311 311 312 312 312 312 312 311
334 334 335 334 331 330 333 333 334 334 333 334 335 335 335 334 331 330 329 327 324 320 318 315 316 315 316 316 316 316 316 315 313 313 310 306 307 310 311 311 311 312 312 313 312 312 311 311 310
333 334 334 332 329 330 330 333 332 333 333 333 334 335 335 335 333 330 329 328 326 321 318 315 316 316 316 315 317 317 316 315 314 312 311 306 306 307 311 310 311 312 313 312 311 311 311 310 309
330 331 330 328 328 329 330 330 331 333 334 333 333 334 334 335 334 331 330 328 326 322 319 316 315 317 316 316 316 316 316 315 314 313 308 308 307 306 307 311 312 312 312 311 310 310 311 311 308
333 329 330 329 328 328 328 329 331 332 333 333 332 332 333 334 334 332 330 329 326 324 320 317 316 316 316 315 315 315 315 314 314 313 310 309 305 306 309 311 312 312 311 310 309 309 309 309 308
329 329 328 328 328 328 328 329 329 328 328 331 331 330 333 334 334 332 331 329 327 325 322 318 317 316 315 314 314 314 314 314 313 313 310 306 307 310 309 310 312 311 310 309 308 308 307 306 306
331 329 329 329 328 327 330 333 332 330 329 332 331 332 332 333 334 333 331 330 328 326 323 319 317 316 315 314 314 315 315 315 314 314 313 310 311 311 311 311 311 310 309 309 307 307 306 302 301
328 327 328 328 329 328 327 328 329 330 329 328 331 331 332 333 333 333 331 330 328 326 324 320 317 316 315 315 315 316 315 315 315 314 313 312 312 312 311 311 310 309 308 309 308 307 305 298 296
327 324 325 327 327 328 327 326 327 326 327 327 326 327 329 332 333 333 331 329 328 327 325 321 318 317 316 315 315 316 316 315 316 315 314 313 312 311 311 309 309 309 309 308 307 304 298 294 293
324 324 324 328 331 329 327 326 326 325 325 325 324 324 326 327 330 333 332 329 328 327 325 321 318 317 316 314 315 316 316 316 316 316 315 314 313 311 309 308 308 308 308 306 304 299 294 292 292
325 324 326 328 327 326 325 326 325 325 324 324 324 325 326 328 327 331 332 329 327 327 324 321 319 318 316 314 315 317 317 316 316 316 316 315 314 312 309 308 309 308 306 305 300 294 292 292 292
323 326 326 327 326 328 326 324 324 324 324 324 325 326 327 329 328 330 332 329 327 327 325 322 320 318 316 314 315 317 316 316 316 317 317 315 313 309 308 308 308 306 305 300 293 293 291 291 291
324 324 327 327 331 328 325 323 323 324 324 325 325 326 326 326 329 330 331 329 328 327 325 323 321 318 316 315 316 316 316 315 316 318 316 313 310 307 308 308 306 305 300 294 291 291 291 290 291
324 323 324 326 327 329 327 323 324 324 323 324 324 326 325 325 325 328 330 328 327 326 325 323 321 319 317 316 316 316 315 316 316 315 313 310 308 309 308 306 305 300 294 291 290 289 290 289 289
321 323 324 332 327 325 326 325 323 324 324 323 323 324 324 324 323 323 323 324 325 325 325 323 322 320 318 317 316 316 316 316 314 312 310 308 309 308 307 305 300 294 291 289 288 289 288 289 288
Wind_Speed
4 8 7 10 5 4 10 6 8 8 7 7 8 7 12 13 11 6 15 11 12 10 9 9 12 10 4 3 5 6 8 8 8 8 8 9 9 9 10 10 9 8 8 8 8 8 8 8 9
2 5 7 10 8 7 8 6 7 9 10 7 6 3 8 14 12 17 14 12 11 11 11 10 12 6 3 2 5 6 6 6 7 8 8 8 8 9 10 11 10 9 9 10 10 10 10 10 10
3 7 15 5 4 9 10 6 10 10 8 6 5 5 4 9 15 11 15 15 12 11 10 12 11 6 2 1 4 5 6 7 8 8 9 10 10 11 11 11 11 12 13 13 14 14 13 13 12
6 9 11 8 7 8 8 9 13 10 5 3 3 8 9 6 13 13 17 15 13 8 9 11 10 5 0 2 4 5 7 9 9 10 10 11 11 11 11 11 11 12 13 14 14 14 15 15 15
8 15 7 4 11 6 3 11 12 8 8 7 4 7 11 11 12 18 17 14 14 10 10 9 9 5 2 6 5 6 8 9 9 11 12 14 15 16 15 13 12 12 12 13 13 13 13 13 13
19 12 6 6 14 6 5 10 10 6 7 7 4 11 9 12 17 16 14 14 12 12 7 8 7 5 4 7 7 8 9 11 12 13 14 15 16 18 18 19 19 18 18 18 18 18 18 18 18
17 11 5 1 10 8 8 9 8 6 8 8 6 10 10 15 17 16 14 12 11 11 10 8 5 6 8 9 9 9 11 13 14 14 15 15 16 18 19 19 19 19 19 19 19 19 19 19 19
13 11 1 5 5 6 11 11 7 6 10 7 6 6 11 19 19 16 14 12 10 9 10 10 9 9 9 9 10 10 11 12 13 14 17 17 16 16 18 17 18 18 18 18 18 19 21 22 20
8 12 3 8 9 6 11 9 5 3 8 6 7 1 12 23 21 18 15 12 11 10 11 11 11 11 10 9 9 9 11 12 12 13 17 15 10 12 15 16 17 18 18 18 18 19 22 19 19
11 11 4 8 6 8 4 11 10 7 9 8 8 8 21 24 22 19 16 13 11 12 12 12 12 11 11 9 10 10 12 8 8 8 9 9 11 12 14 16 16 19 20 18 17 19 17 15 12
5 7 8 6 8 6 6 9 10 11 13 13 14 16 21 23 21 18 15 13 13 14 12 12 13 13 12 10 10 9 8 8 7 9 8 10 8 10 8 10 9 12 15 11 13 14 15 16 13
10 4 4 10 4 4 4 5 9 12 9 5 16 20 21 22 21 19 16 14 14 14 13 12 12 13 13 12 10 10 8 8 7 8 10 10 9 10 10 9 10 10 10 11 11 11 14 13 13
9 3 0 0 2 2 1 7 10 14 9 5 15 19 20 20 20 17 16 15 15 15 15 13 12 13 13 12 11 11 10 8 8 8 10 9 9 10 10 11 10 10 10 10 10 10 10 11 11
4 6 1 3 2 4 8 6 10 11 9 11 16 18 19 20 20 19 18 17 15 16 16 14 13 12 13 11 12 12 10 11 9 8 10 11 9 11 10 10 9 9 9 9 10 10 9 10 10
10 12 12 14 5 4 9 10 12 13 15 15 16 17 18 19 20 20 19 18 16 15 16 15 14 13 13 12 12 11 10 10 9 10 11 11 10 11 9 8 8 8 9 9 8 9 10 10 11
12 16 12 9 8 4 7 8 16 16 17 17 16 17 19 20 21 20 19 18 17 16 17 16 14 14 13 12 12 10 12 10 10 9 10 11 10 9 8 7 7 7 7 7 8 9 9 10 12
16 10 3 10 12 5 7 11 11 23 15 17 15 18 19 20 21 21 21 20 18 17 17 17 16 15 14 14 11 11 12 11 10 9 9 10 9 8 6 5 6 6 6 8 8 9 10 10 12
4 6 11 12 5 4 11 14 11 12 15 16 19 18 20 21 22 22 22 21 20 19 17 18 17 16 15 14 13 11 12 11 10 9 9 9 8 7 6 4 6 5 4 7 9 10 11 11 15
16 12 15 15 13 6 11 17 15 24 19 17 19 19 20 22 23 24 24 24 23 21 20 19 19 19 17 15 14 13 12 11 10 9 10 9 7 5 4 3 4 4 5 7 9 9 10 12 15
15 15 17 15 12 8 14 19 16 16 19 18 18 21 22 23 25 26 27 26 25 23 21 20 20 21 18 15 14 13 13 12 10 10 10 8 7 5 3 4 2 2 4 7 10 11 12 13 14
15 16 15 16 6 10 15 19 16 9 35 12 18 18 22 25 28 29 30 29 27 25 24 22 22 22 20 17 16 15 14 13 12 11 9 9 8 6 5 4 4 4 3 5 9 12 13 15 12
16 12 11 13 13 11 2 8 20 12 13 39 19 21 22 24 27 30 31 32 30 27 26 24 23 23 21 20 18 18 16 14 12 12 10 10 9 7 6 6 5 5 4 6 8 13 13 13 12
15 12 11 15 15 14 16 9 15 12 11 8 16 13 14 22 27 31 32 32 31 29 27 26 25 24 23 23 19 19 15 13 13 13 13 11 10 8 8 6 5 5 3 11 14 15 18 11 11
8 14 14 14 12 13 16 14 13 9 6 8 10 2 10 19 25 29 29 30 30 31 29 30 28 25 24 23 22 20 18 15 15 15 13 11 9 9 8 6 4 7 10 12 13 14 15 14 10
11 11 10 12 11 11 15 5 10 15 9 6 6 5 8 14 22 29 31 32 32 32 32 34 29 27 26 25 23 21 18 17 16 16 13 12 10 8 7 5 7 8 11 13 11 14 12 11 10
14 14 10 13 12 13 2 9 1 3 4 3 1 4 7 10 18 27 31 31 31 31 30 30 29 28 27 26 24 21 19 18 16 15 12 12 10 9 10 11 9 9 12 11 12 9 9 10 8
16 9 10 14 15 10 14 22 18 15 6 4 5 5 5 6 13 22 28 29 30 29 29 32 31 29 29 28 25 23 22 18 17 15 14 11 13 13 12 10 8 10 10 9 9 8 8 8 7
11 9 9 9 4 15 13 14 13 6 4 7 6 6 6 7 10 19 25 27 27 27 26 29 28 30 29 26 25 23 22 22 17 16 14 16 15 12 11 7 8 9 9 9 7 5 8 6 6
9 13 12 10 10 11 12 8 11 4 4 3 5 8 9 10 12 14 18 22 24 24 25 25 27 27 24 25 23 23 23 19 20 18 18 16 14 14 8 8 8 7 5 7 7 6 6 6 7
15 13 17 11 16 10 11 14 10 2 2 3 2 9 10 10 11 13 15 17 19 21 21 22 25 25 25 24 25 22 22 24 24 20 16 16 15 11 9 8 6 4 5 7 5 5 5 5 6
Wind_Direction
303 5 307 252 265 228 115 90 109 113 111 58 72 15 55 37 16 60 136 125 115 116 93 106 109 107 88 61 73 74 69 66 60 55 51 50 56 59 61 65 67 67 64 61 59 56 53 50 46
267 282 247 275 263 71 99 122 117 67 86 112 86 127 53 74 72 122 125 122 116 112 109 118 114 118 112 92 88 80 68 55 50 46 43 48 55 60 61 64 66 63 61 60 60 60 57 53 51
255 253 268 263 278 22 97 133 102 110 126 149 123 33 48 87 124 117 138 127 119 123 135 136 126 138 133 360 87 81 65 54 49 47 55 60 65 69 71 70 69 68 67 65 63 61 59 55 52
271 223 260 262 28 59 75 117 126 137 145 178 55 85 88 101 133 141 135 129 132 138 126 133 133 141 203 73 99 75 66 60 57 63 69 72 77 81 81 78 76 73 69 66 63 60 58 58 57
253 263 208 186 90 77 89 120 144 155 142 155 206 108 109 129 134 137 135 135 132 122 134 151 156 153 162 123 96 81 76 73 77 81 81 80 81 79 79 80 80 77 73 68 63 58 55 53 52
258 249 320 264 96 116 118 138 153 155 141 131 168 121 120 147 144 143 139 138 135 132 130 134 167 179 137 118 106 96 91 88 87 83 79 78 80 82 82 82 82 81 79 77 73 69 65 62 61
279 297 354 38 89 147 134 157 171 157 151 159 142 152 138 155 156 148 145 136 136 132 134 116 121 133 131 123 116 104 92 87 84 84 81 79 84 87 84 83 83 81 79 76 73 69 64 60 60
288 275 175 23 69 98 129 171 184 190 128 128 183 168 168 166 160 152 144 138 133 131 129 136 125 125 127 136 124 108 93 84 83 85 82 70 83 87 89 83 80 80 81 78 74 69 64 53 54
278 269 100 43 57 121 125 180 169 140 126 174 173 18 143 163 160 155 150 144 136 133 132 138 136 132 130 136 129 114 102 90 83 83 83 76 82 74 83 81 81 82 79 76 73 71 61 45 30
280 287 33 37 17 2 158 221 154 193 170 164 143 122 149 159 162 163 161 153 146 144 140 140 133 137 126 133 119 119 88 101 109 102 93 110 115 96 85 83 82 84 70 68 62 65 70 62 46
243 313 50 102 17 321 169 217 159 223 180 184 171 153 158 163 168 168 165 159 153 150 147 144 149 138 132 140 128 127 125 111 102 104 112 108 91 76 87 71 68 59 66 60 54 53 52 55 54
266 127 321 45 2 309 264 206 182 228 72 78 152 161 164 170 173 172 167 161 157 151 147 151 148 143 147 141 135 138 139 122 111 110 91 91 96 103 100 89 72 68 66 64 58 44 41 45 41
243 134 49 79 240 270 239 206 216 205 126 167 140 163 169 173 174 174 170 164 159 157 154 153 155 146 147 139 145 146 135 132 121 111 112 114 110 104 101 92 86 76 66 57 54 38 39 31 19
31 289 333 234 128 182 234 172 206 191 147 154 161 169 173 175 175 173 172 168 164 161 161 158 155 151 147 157 149 139 150 133 126 117 120 115 112 106 97 90 80 71 62 49 39 38 27 15 12
271 260 218 208 187 213 254 201 214 157 166 167 172 173 174 177 177 179 176 173 167 167 164 162 159 157 152 155 148 144 137 139 137 133 131 126 115 120 105 97 83 65 48 42 30 21 10 5 356
249 241 268 66 205 194 244 298 195 166 168 171 179 177 176 179 181 180 179 177 173 169 170 167 168 162 157 159 150 152 144 143 139 138 139 136 128 116 102 92 80 68 49 37 20 17 8 355 351
224 263 118 217 218 275 219 282 155 215 174 173 188 183 181 180 183 182 180 179 178 174 169 171 174 169 160 164 158 156 153 150 146 147 150 152 142 124 106 92 71 63 40 29 22 7 4 358 352
26 255 274 281 258 207 270 245 208 196 188 206 181 187 187 185 186 183 182 180 180 176 171 172 175 176 165 165 166 166 152 157 153 149 159 155 151 135 113 95 67 61 40 15 19 9 1 349 343
293 281 303 296 298 254 275 261 243 167 229 198 186 189 193 190 187 185 184 182 180 176 174 176 175 179 171 171 170 170 169 165 158 163 166 163 164 154 131 92 63 50 31 12 10 10 356 353 341
267 280 275 289 295 328 284 270 249 234 200 197 204 193 192 190 185 186 185 184 183 180 179 178 178 178 176 177 175 175 175 167 166 170 173 182 179 169 139 133 112 104 10 2 1 5 360 355 347
263 268 282 290 264 256 257 275 276 353 335 189 205 211 194 194 188 187 188 187 186 185 183 182 181 180 178 180 176 172 170 169 171 176 178 188 182 182 192 214 255 332 12 3 1 352 0 353 349
260 262 283 258 276 270 133 246 242 115 128 279 209 208 204 197 195 193 191 189 189 190 184 184 182 182 182 179 183 180 179 180 182 180 180 188 195 204 226 257 280 286 336 338 348 340 354 350 349
262 283 298 283 278 290 275 273 306 184 217 275 171 202 211 205 202 197 196 193 191 188 187 185 184 185 185 185 187 183 181 181 186 180 190 188 202 218 239 255 268 289 300 323 329 333 335 353 351
296 274 259 257 260 260 270 272 278 293 209 178 242 174 205 215 208 200 200 196 192 190 188 186 187 188 187 188 187 188 184 186 186 185 182 185 198 218 231 239 251 271 305 318 331 336 334 343 353
244 244 254 247 239 252 259 264 275 301 18 20 329 256 235 238 214 202 197 195 191 190 191 193 187 189 189 192 188 191 190 189 190 190 188 188 190 190 221 216 263 285 306 316 328 330 342 344 352
205 237 236 253 266 279 133 249 230 70 86 73 218 235 233 232 220 203 197 192 192 192 191 190 191 192 192 193 190 193 190 189 191 193 195 193 195 192 213 223 259 294 306 315 327 331 348 342 350
245 238 271 288 285 279 282 297 285 248 172 181 213 192 189 201 201 198 194 191 193 195 194 193 194 191 195 197 189 192 188 190 186 195 192 188 189 202 220 241 271 285 298 316 340 338 343 353 344
262 257 219 239 258 266 268 279 272 212 240 147 184 175 157 175 189 189 191 190 195 196 197 200 195 190 198 196 191 192 189 186 190 186 181 187 195 199 230 251 270 287 310 322 343 350 333 353 342
197 235 236 261 234 247 269 271 26 48 46 39 167 159 163 164 176 191 191 193 194 193 192 194 194 192 192 192 188 191 188 180 193 182 189 195 195 223 230 250 272 297 307 320 330 345 340 353 349
267 220 224 228 236 255 263 267 302 191 252 298 220 172 168 170 170 178 187 190 192 191 192 194 191 190 193 189 187 184 176 184 192 189 187 192 212 215 235 258 270 276 299 315 328 337 340 354 353